Total_Precipitation_Accumulation
1.55 1.65 1.76 1.79 1.83 1.91 2.03 2.15 2.20 2.09 1.87 1.71 1.72 1.72 1.74 1.78 1.94 1.57 1.52 1.75 1.64 1.55 1.48 1.38 1.32 1.33 1.36 1.40 1.47 1.58 1.67 1.72 1.78 1.82 1.91 2.08 2.18 2.25
1.30 1.38 1.48 1.56 1.65 1.74 1.85 1.95 2.01 1.99 1.91 1.72 1.65 1.66 1.64 1.58 1.72 1.40 1.41 1.60 1.50 1.43 1.35 1.30 1.23 1.23 1.24 1.27 1.34 1.36 1.39 1.39 1.41 1.41 1.41 1.49 1.65 1.85
1.30 1.34 1.39 1.45 1.53 1.55 1.56 1.62 1.75 1.87 1.96 1.88 1.71 1.67 1.66 1.60 1.52 1.33 1.24 1.22 1.26 1.33 1.29 1.26 1.18 1.12 1.13 1.12 1.09 1.10 1.09 1.11 1.15 1.17 1.16 1.20 1.26 1.36
1.18 1.24 1.24 1.23 1.30 1.39 1.44 1.44 1.49 1.60 1.73 1.79 1.69 1.56 1.52 1.51 1.48 1.41 1.19 1.08 1.08 1.13 1.06 1.02 1.03 1.00 0.95 0.95 0.95 0.93 0.90 0.92 0.95 0.99 1.00 1.02 1.07 1.14
1.02 1.03 1.04 1.06 1.07 1.10 1.16 1.21 1.24 1.27 1.41 1.46 1.46 1.41 1.37 1.31 1.36 1.36 1.23 1.25 1.07 1.03 0.94 0.87 0.84 0.82 0.78 0.76 0.80 0.85 0.83 0.78 0.75 0.78 0.81 0.85 0.88 0.92
0.82 0.82 0.87 0.95 0.97 0.98 0.97 1.01 1.05 1.16 1.25 1.29 1.27 1.28 1.29 1.21 1.24 1.30 1.26 1.19 1.07 0.89 0.91 0.80 0.72 0.66 0.65 0.67 0.65 0.67 0.71 0.75 0.81 0.80 0.72 0.65 0.64 0.64
0.67 0.65 0.66 0.77 0.85 0.82 0.76 0.85 0.98 1.10 1.16 1.18 1.12 1.06 1.05 1.12 1.13 1.10 1.10 1.10 1.03 0.90 0.95 0.86 0.78 0.74 0.75 0.72 0.69 0.64 0.65 0.65 0.66 0.67 0.65 0.60 0.57 0.53
0.66 0.67 0.61 0.63 0.65 0.62 0.62 0.74 0.91 0.95 1.01 1.09 1.08 1.07 1.06 1.06 1.07 1.07 1.12 1.17 1.18 0.98 0.96 0.88 0.80 0.84 0.82 0.77 0.73 0.65 0.61 0.66 0.63 0.59 0.59 0.57 0.56 0.55
0.65 0.63 0.55 0.52 0.58 0.58 0.58 0.63 0.71 0.73 0.81 0.97 1.07 1.05 1.07 1.12 1.17 1.13 1.20 1.25 1.23 1.13 1.15 1.08 0.88 0.81 0.67 0.61 0.64 0.58 0.58 0.61 0.64 0.60 0.59 0.59 0.58 0.57
0.61 0.60 0.61 0.59 0.55 0.56 0.55 0.59 0.68 0.75 0.76 0.81 0.98 0.99 0.97 1.04 1.12 1.19 1.27 1.27 1.24 1.20 1.25 1.25 0.96 0.86 0.70 0.73 0.67 0.54 0.52 0.52 0.57 0.57 0.58 0.59 0.60 0.63
0.52 0.47 0.50 0.55 0.55 0.53 0.57 0.69 0.77 0.83 0.70 0.70 0.79 0.87 0.90 0.94 0.96 1.05 1.26 1.42 1.37 1.18 1.16 1.26 1.06 0.93 0.82 0.79 0.72 0.63 0.55 0.52 0.49 0.51 0.53 0.57 0.61 0.67
0.51 0.47 0.44 0.44 0.45 0.45 0.55 0.70 0.81 0.81 0.73 0.74 0.91 1.00 0.98 1.05 1.02 1.07 1.30 1.40 1.35 1.32 1.15 1.19 1.15 1.13 1.07 0.83 0.75 0.72 0.68 0.62 0.54 0.51 0.51 0.52 0.60 0.64
0.49 0.51 0.45 0.34 0.33 0.37 0.50 0.59 0.67 0.65 0.75 0.93 1.03 1.05 1.07 1.13 1.08 1.05 1.21 1.30 1.38 1.43 1.21 1.21 1.22 1.24 1.28 1.03 0.80 0.74 0.76 0.76 0.74 0.75 0.71 0.64 0.62 0.61
0.52 0.50 0.44 0.34 0.33 0.38 0.47 0.54 0.56 0.64 0.82 1.01 1.10 1.09 1.02 0.99 1.00 0.98 1.10 1.17 1.21 1.20 1.12 1.18 1.31 1.34 1.26 1.07 0.90 0.79 0.81 0.88 0.97 1.05 1.02 0.96 0.82 0.77
0.41 0.38 0.35 0.35 0.38 0.50 0.53 0.53 0.63 0.84 0.96 1.04 1.11 1.11 1.01 0.94 0.91 0.87 0.96 1.09 1.09 0.94 0.82 0.89 1.10 1.15 1.19 1.13 1.02 0.95 0.96 0.96 1.08 1.23 1.27 1.19 1.07 0.95
0.40 0.40 0.43 0.47 0.52 0.61 0.69 0.80 0.85 0.91 0.91 0.99 1.04 0.99 0.89 0.85 0.88 0.88 0.96 1.07 1.11 1.01 0.83 0.78 0.89 1.04 1.14 1.06 1.05 1.05 1.04 1.12 1.14 1.25 1.38 1.42 1.28 1.04
0.32 0.47 0.69 0.75 0.82 0.88 0.91 0.96 1.02 0.96 0.90 0.90 0.93 0.94 0.90 0.87 0.86 0.83 0.91 1.00 1.09 1.05 0.94 0.86 0.86 0.90 0.92 0.94 1.00 1.01 1.02 1.10 1.21 1.29 1.42 1.55 1.51 1.24
0.35 0.58 0.70 0.76 0.83 0.85 0.85 0.89 0.96 0.99 0.91 0.85 0.86 0.86 0.85 0.83 0.85 0.81 0.82 0.96 1.06 0.99 0.93 0.88 0.84 0.86 0.88 0.85 0.87 0.94 1.00 1.15 1.27 1.32 1.30 1.41 1.60 1.46
0.51 0.66 0.69 0.74 0.79 0.74 0.74 0.79 0.84 0.85 0.78 0.76 0.76 0.75 0.74 0.75 0.82 0.82 0.77 0.78 0.82 0.79 0.77 0.76 0.79 0.87 0.93 1.01 0.98 1.03 1.10 1.17 1.25 1.27 1.29 1.34 1.52 1.48
0.61 0.66 0.67 0.67 0.71 0.70 0.68 0.68 0.67 0.63 0.60 0.63 0.70 0.72 0.71 0.71 0.71 0.73 0.67 0.65 0.71 0.72 0.71 0.74 0.78 0.84 0.92 0.98 1.14 1.25 1.18 1.06 1.08 1.23 1.35 1.38 1.47 1.46
0.56 0.58 0.59 0.60 0.61 0.66 0.65 0.58 0.54 0.52 0.50 0.52 0.57 0.63 0.65 0.63 0.63 0.61 0.55 0.49 0.57 0.63 0.66 0.69 0.71 0.72 0.77 0.84 0.98 1.14 1.16 1.17 1.14 1.19 1.27 1.28 1.19 1.10
0.48 0.49 0.48 0.46 0.49 0.51 0.49 0.46 0.44 0.45 0.45 0.45 0.48 0.47 0.48 0.51 0.52 0.49 0.46 0.46 0.52 0.54 0.57 0.60 0.60 0.64 0.71 0.81 0.94 1.06 1.07 0.97 0.95 1.04 1.08 0.98 0.86 0.90
0.44 0.42 0.39 0.37 0.37 0.38 0.40 0.41 0.40 0.41 0.42 0.45 0.44 0.41 0.40 0.39 0.38 0.38 0.39 0.38 0.38 0.40 0.45 0.50 0.53 0.58 0.60 0.61 0.68 0.74 0.72 0.67 0.65 0.68 0.80 0.88 0.87 0.89